User: anonymous   Login
Location: Frizzleburg
(41.0764°N, 80.4548°W)
Time: 13:49:10
(UTC+00:00)
Language:

Cosmos 1825 - Orbit

View from above orbital plane
View from above orbital plane
View from above satellite
View from above satellite

Ground track
Ground track

The orbit data is extracted from the following two-line orbital elements,

1 17566U 87024A   20020.62787467 +.00000445 +00000-0 +19189-4 0  9992
2 17566 082.5040 069.8979 0004839 136.2362 223.9257 15.19895002797419
Epoch (UTC): 20 January 2020 15:04:08
Eccentricity: 0.0004839
inclination: 82.5040°
perigee height: 503 km
apogee height: 509 km
right ascension of ascending node: 69.8979°
argument of perigee: 136.2362°
revolutions per day: 15.19895002
mean anomaly at epoch: 223.9257°
orbit number at epoch: 79741

The dashed part of the orbit path shows where the satellite is in the earth's shadow,  

DLR